This is the latest recevied weather packets stored in our database for station/object AA0RD-13. If no packets are shown the sender has not sent any weather packets the latest 10 day(s).
| Time | Temp. | Humidity | Pressure | Rain* | Wind** | Luminosity | Snow |
|---|---|---|---|---|---|---|---|
| 1777745595 | 13.33° C | 95% | 1018 hPa | 0 mm | - | - | - |
| 1777745307 | 12.78° C | 95% | 1018 hPa | 0 mm | - | - | - |
| 1777744694 | 13.89° C | 94% | 1017.9 hPa | 0 mm | - | - | - |
| 1777744426 | 13.89° C | 95% | 1018 hPa | 0 mm | - | - | - |
| 1777744098 | 13.89° C | 96% | 1018 hPa | 0 mm | - | - | - |
| 1777743828 | 13.33° C | 97% | 1017.9 hPa | 0 mm | - | - | - |
| 1777742901 | 12.22° C | 100% | 1018.1 hPa | 0 mm | - | - | - |
| 1777742632 | 11.11° C | 100% | 1018.1 hPa | 0 mm | - | - | - |
| 1777741707 | 10.56° C | 100% | 1018.2 hPa | 0 mm | - | - | - |
| 1777738700 | 9.44° C | 100% | 1018.2 hPa | 0 mm | - | - | - |
| 1777738104 | 9.44° C | 100% | 1018.1 hPa | 0 mm | - | - | - |
| 1777736601 | 9.44° C | 100% | 1018.1 hPa | 0 mm | - | - | - |
| 1777736005 | 8.89° C | 100% | 1018.2 hPa | 0 mm | - | - | - |
| 1777735716 | 9.44° C | 100% | 1018.1 hPa | 0 mm | - | - | - |
| 1777735103 | 8.89° C | 100% | 1018 hPa | 0 mm | - | - | - |
| 1777734796 | 8.89° C | 100% | 1018 hPa | 0 mm | - | - | - |
| 1777733003 | 9.44° C | 100% | 1017.9 hPa | 0 mm | - | - | - |
| 1777732404 | 8.89° C | 100% | 1018 hPa | 0 mm | - | - | - |
| 1777732100 | 8.89° C | 100% | 1017.7 hPa | 0 mm | - | - | - |
| 1777731813 | 8.89° C | 100% | 1017.5 hPa | 0 mm | - | - | - |
| 1777731196 | 8.89° C | 100% | 1017.4 hPa | 0 mm | - | - | - |
| 1777728809 | 9.44° C | 100% | 1017.4 hPa | 0.25 mm | - | - | - |
| 1777728520 | 9.44° C | 100% | 1017.4 hPa | 0.25 mm | - | - | - |
| 1777728211 | 8.89° C | 100% | 1017.4 hPa | 0.25 mm | - | - | - |
| 1777727903 | 8.89° C | 100% | 1017.3 hPa | 0.25 mm | - | - | - |
* Rain latest hour (hover to see other rain measurements)
** Current wind speed in m/s (hover to see current wind gust speed)